Torna al catalogo

STARLINK-36700

AttivoComunicazioniSSO
NORAD 67662·PAYLOAD·🇺🇸 United States

Lanciato Feb 2, 2026 da Vandenberg Space Force Base

Loading…

Prossimi Passaggi (prossime 24 ore)

TLE

AggiornatoSource: CelesTrak SupGP

Epoca: Sep 14, 2026, 21:27 UTC

1 67662C 26022Q   26257.89423611  .00011736  00000+0  36436-3 0  2574
2 67662  97.2846 289.6104 0001263  88.2863 239.0340 15.33428485    17

Traccia STARLINK-36700 in tempo reale con AllMySat

Download on the App Store